Location: Unspecified
(40.9447°N, 78.9903°W)
Time: 21:54:27
(UTC-04:00)

ISS - Visible Passes

Search period start: 26 July 2021 00:00
Search period end: 05 August 2021 00:00
Orbit: 419 x 421 km, 51.6° (Epoch: 26 July)

Date Brightness Start Highest point End Pass type
(mag) Time Alt. Az. Time Alt. Az. Time Alt. Az.
26 Jul -2.1 22:34:52 10° NW 22:37:50 28° NNE 22:38:58 23° ENE visible
27 Jul -0.7 00:11:32 10° WNW 00:11:55 13° WNW 00:11:55 13° WNW visible
27 Jul -1.6 21:47:41 10° NNW 21:50:22 21° NNE 21:53:02 10° ENE visible
27 Jul -2.2 23:24:07 10° NW 23:26:10 34° WNW 23:26:10 34° WNW visible
28 Jul -3.6 22:36:50 10° NW 22:40:11 63° NE 22:40:27 60° ENE visible
29 Jul -2.8 21:49:35 10° NW 21:52:48 40° NNE 21:54:48 19° E visible
29 Jul -1.2 23:26:40 10° WNW 23:27:45 17° W 23:27:45 17° W visible
30 Jul -2.2 21:02:23 10° NW 21:05:22 28° NNE 21:08:21 10° E visible
30 Jul -3.0 22:39:04 10° WNW 22:42:08 42° SW 22:42:08 42° SW visible
31 Jul -3.8 21:51:39 10° WNW 21:55:02 76° SW 21:56:35 29° SE visible
01 Aug -3.5 21:04:20 10° NW 21:07:42 64° NE 21:11:03 10° ESE visible
01 Aug -1.4 22:42:12 10° W 22:44:03 15° SW 22:44:03 15° SW visible
02 Aug -2.0 21:54:12 10° WNW 21:57:00 24° SW 21:58:37 17° S visible
03 Aug -2.8 21:06:34 10° WNW 21:09:47 42° SW 21:12:59 10° SSE visible
